Weather History for Wheaton NDB, MN

Change the Weather History Date:

Tuesday, April 22, 2014

  Actual Average Record
Temperature  
Mean Temperature 47 °F -  
Max Temperature 64 °F 61 °F 98 °F (1980)
Min Temperature 30 °F 36 °F 24 °F (1967)
Degree Days  
Heating Degree Days 18    
Moisture  
Dew Point 35 °F    
Average Humidity 57    
Maximum Humidity 93    
Minimum Humidity 34    
Precipitation  
Precipitation 0.00 in - - ()
Sea Level Pressure  
Sea Level Pressure 30.09 in    
Wind  
Wind Speed 5 mph (ESE)    
Max Wind Speed 17 mph    
Max Gust Speed 21 mph    
Visibility 10 miles    
Events      
Averages and records for this station are not official NWS values.
T = Trace of Precipitation, MM = Missing Value Source: NWS Daily Summary

Daily Weather History Graph

Daily Weather History Graph

Search for Another Location

Airport:

Trip Planner

Search our weather history database for the weather conditions in past years. The results will help you decide how hot, cold, wet, or windy it might be!

Date:

Astronomy

Apr. 22, 2014 Rise Set
Actual Time 6:28 AM CDT 8:22 PM CDT
Civil Twilight 5:56 AM CDT 8:54 PM CDT
Nautical Twilight 5:17 AM CDT 9:33 PM CDT
Astronomical Twilight 4:34 AM CDT 10:16 PM CDT
Moon 2:39 AM CDT 1:03 PM CDT
Length of Visible Light 14h 57m
Length of Day
13h 54m
Last Quarter, 46% of the Moon is Illuminated
Apr 22
Last Quarter
Apr 29
New
May 6
First Quarter
May 14
Full
May 21
Last Quarter

Hourly Weather History & Observations

Time (CDT) Temp. Windchill Dew Point Humidity Pressure Visibility Wind Dir Wind Speed Gust Speed Precip Events Conditions
12:14 AM 39.2 °F - 32.0 °F 75% 30.15 in 10.0 mi Calm Calm - N/A   Clear
12:34 AM 37.4 °F - 32.0 °F 81% 30.15 in 10.0 mi Calm Calm - N/A   Clear
12:55 AM 37.4 °F 34.9 °F 32.0 °F 81% 30.16 in 10.0 mi SW 3.5 mph - N/A   Clear
1:14 AM 39.2 °F - 33.8 °F 81% 30.16 in 10.0 mi Calm Calm - N/A   Clear
1:35 AM 41.0 °F 39.0 °F 33.8 °F 76% 30.15 in 10.0 mi SW 3.5 mph - N/A   Clear
1:55 AM 39.2 °F 37.0 °F 33.8 °F 81% 30.16 in 10.0 mi SW 3.5 mph - N/A   Clear
2:15 AM 39.2 °F 35.9 °F 33.8 °F 81% 30.16 in 10.0 mi SW 4.6 mph - N/A   Clear
2:34 AM 37.4 °F 33.8 °F 30.2 °F 75% 30.16 in 10.0 mi SSW 4.6 mph - N/A   Clear
2:54 AM 39.2 °F 35.9 °F 32.0 °F 75% 30.15 in 10.0 mi SW 4.6 mph - N/A   Clear
3:14 AM 37.4 °F 32.1 °F 32.0 °F 81% 30.15 in 10.0 mi SW 6.9 mph - N/A   Clear
3:34 AM 37.4 °F 32.8 °F 32.0 °F 81% 30.15 in 10.0 mi SW 5.8 mph - N/A   Clear
3:54 AM 39.2 °F 37.0 °F 33.8 °F 81% 30.15 in 10.0 mi SW 3.5 mph - N/A   Clear
4:15 AM 39.2 °F - 32.0 °F 75% 30.15 in 10.0 mi Calm Calm - N/A   Clear
4:34 AM 39.2 °F - 32.0 °F 75% 30.15 in 10.0 mi Calm Calm - N/A   Clear
5:14 AM 32.0 °F 26.4 °F 26.6 °F 80% 30.16 in 10.0 mi East 5.8 mph - N/A   Clear
5:35 AM 30.2 °F 25.4 °F 28.4 °F 93% 30.16 in 10.0 mi ESE 4.6 mph - N/A   Clear
5:54 AM 30.2 °F 24.3 °F 26.6 °F 86% 30.16 in 10.0 mi ESE 5.8 mph - N/A   Clear
6:15 AM 30.2 °F 23.4 °F 28.4 °F 93% 30.15 in 10.0 mi ESE 6.9 mph - N/A   Clear
6:34 AM 30.2 °F 24.3 °F 26.6 °F 86% 30.16 in 10.0 mi SE 5.8 mph - N/A   Clear
6:54 AM 30.2 °F 24.3 °F 28.4 °F 93% 30.16 in 10.0 mi SE 5.8 mph - N/A   Clear
7:15 AM 35.6 °F 31.7 °F 32.0 °F 87% 30.16 in 10.0 mi SE 4.6 mph - N/A   Clear
7:35 AM 39.2 °F - 35.6 °F 87% 30.17 in 10.0 mi Calm Calm - N/A   Clear
7:54 AM 42.8 °F - 37.4 °F 81% 30.17 in 10.0 mi Calm Calm - N/A   Clear
8:14 AM 44.6 °F - 37.4 °F 76% 30.17 in 10.0 mi Calm Calm - N/A   Clear
8:34 AM 46.4 °F - 35.6 °F 66% 30.16 in 10.0 mi Calm Calm - N/A   Clear
8:54 AM 48.2 °F - 35.6 °F 62% 30.16 in 10.0 mi Calm Calm - N/A   Clear
9:14 AM 50.0 °F - 37.4 °F 62% 30.16 in 10.0 mi Calm Calm - N/A   Clear
9:34 AM 53.6 °F - 37.4 °F 54% 30.16 in 10.0 mi Calm Calm - N/A   Clear
9:54 AM 53.6 °F - 37.4 °F 54% 30.16 in 10.0 mi Calm Calm - N/A   Clear
10:14 AM 55.4 °F - 35.6 °F 47% 30.15 in 10.0 mi Calm Calm - N/A   Clear
10:34 AM 57.2 °F - 35.6 °F 44% 30.14 in 10.0 mi SSW 3.5 mph - N/A   Clear
10:54 AM 57.2 °F - 35.6 °F 44% 30.14 in 10.0 mi Calm Calm - N/A   Clear
11:14 AM 59.0 °F - 35.6 °F 42% 30.14 in 10.0 mi Calm Calm - N/A   Clear
11:34 AM 59.0 °F - 35.6 °F 42% 30.14 in 10.0 mi Calm Calm - N/A   Clear
11:54 AM 60.8 °F - 35.6 °F 39% 30.13 in 10.0 mi Calm Calm - N/A   Clear
12:14 PM 60.8 °F - 35.6 °F 39% 30.13 in 10.0 mi South 3.5 mph - N/A   Clear
12:35 PM 62.6 °F - 35.6 °F 37% 30.12 in 10.0 mi Calm Calm - N/A   Clear
12:54 PM 62.6 °F - 35.6 °F 37% 30.10 in 10.0 mi North 8.1 mph - N/A   Clear
1:14 PM 62.6 °F - 35.6 °F 37% 30.09 in 10.0 mi East 8.1 mph - N/A   Clear
1:34 PM 62.6 °F - 35.6 °F 37% 30.08 in 10.0 mi Calm Calm - N/A   Clear
1:54 PM 64.4 °F - 35.6 °F 34% 30.07 in 10.0 mi East 6.9 mph - N/A   Clear
2:14 PM 62.6 °F - 35.6 °F 37% 30.06 in 10.0 mi East 9.2 mph - N/A   Clear
2:34 PM 62.6 °F - 35.6 °F 37% 30.06 in 10.0 mi East 5.8 mph - N/A   Clear
2:55 PM 62.6 °F - 35.6 °F 37% 30.06 in 10.0 mi ENE 9.2 mph - N/A   Clear
3:14 PM 62.6 °F - 35.6 °F 37% 30.05 in 10.0 mi East 11.5 mph 16.1 mph N/A   Clear
3:34 PM 62.6 °F - 35.6 °F 37% 30.04 in 10.0 mi ENE 10.4 mph - N/A   Clear
3:54 PM 62.6 °F - 35.6 °F 37% 30.04 in 10.0 mi East 10.4 mph - N/A   Clear
4:14 PM 62.6 °F - 35.6 °F 37% 30.03 in 10.0 mi East 13.8 mph - N/A   Clear
4:34 PM 62.6 °F - 35.6 °F 37% 30.02 in 10.0 mi East 11.5 mph - N/A   Clear
4:55 PM 64.4 °F - 37.4 °F 37% 30.02 in 10.0 mi ESE 13.8 mph 18.4 mph N/A   Clear
5:14 PM 64.4 °F - 37.4 °F 37% 30.01 in 10.0 mi East 12.7 mph - N/A   Clear
5:34 PM 64.4 °F - 37.4 °F 37% 30.01 in 10.0 mi ESE 17.3 mph 20.7 mph N/A   Clear
5:54 PM 64.4 °F - 37.4 °F 37% 30.01 in 10.0 mi ESE 12.7 mph - N/A   Clear
6:14 PM 64.4 °F - 37.4 °F 37% 30.01 in 10.0 mi ESE 13.8 mph 20.7 mph N/A   Clear
6:34 PM 62.6 °F - 37.4 °F 39% 30.00 in 10.0 mi ESE 16.1 mph - N/A   Clear
6:54 PM 62.6 °F - 37.4 °F 39% 30.00 in 10.0 mi ESE 15.0 mph - N/A   Clear
7:14 PM 60.8 °F - 35.6 °F 39% 29.99 in 10.0 mi East 16.1 mph - N/A   Clear
7:34 PM 60.8 °F - 35.6 °F 39% 29.99 in 10.0 mi ESE 13.8 mph - N/A   Clear
7:55 PM 57.2 °F - 35.6 °F 44% 29.99 in 10.0 mi East 12.7 mph - N/A   Clear
8:14 PM 57.2 °F - 37.4 °F 48% 29.99 in 10.0 mi East 12.7 mph - N/A   Clear
8:34 PM 55.4 °F - 37.4 °F 51% 29.99 in 10.0 mi East 11.5 mph - N/A   Clear
8:55 PM 53.6 °F - 35.6 °F 51% 29.99 in 10.0 mi ESE 10.4 mph - N/A   Clear
9:14 PM 53.6 °F - 37.4 °F 54% 29.99 in 10.0 mi East 11.5 mph - N/A   Clear
9:34 PM 53.6 °F - 37.4 °F 54% 30.00 in 10.0 mi ESE 13.8 mph - N/A   Clear
9:54 PM 53.6 °F - 37.4 °F 54% 30.00 in 10.0 mi ESE 13.8 mph - N/A   Scattered Clouds
10:14 PM 53.6 °F - 37.4 °F 54% 30.00 in 10.0 mi ESE 15.0 mph - N/A   Scattered Clouds
10:54 PM 53.6 °F - 37.4 °F 54% 30.00 in 10.0 mi ESE 12.7 mph - N/A   Mostly Cloudy
11:14 PM 51.8 °F - 37.4 °F 58% 30.00 in 10.0 mi ESE 12.7 mph - N/A   Overcast
11:34 PM 51.8 °F - 37.4 °F 58% 29.99 in 10.0 mi ESE 13.8 mph - N/A   Overcast
11:54 PM 51.8 °F - 37.4 °F 58% 29.99 in 10.0 mi ESE 11.5 mph - N/A   Scattered Clouds